Temp
15 16 16 16 16 16 16 16 17 17 17 18 18 18 19 19 19 19 19 19 19 18 18 19 18 17 17 17 17 17 18 18 18 18 18 18 18 18 18 17 17 17 17 17 18 18 18 19 19 20 22 24 26 28 28 27 27 27 26 26 26 25 25 25 25 24 24 24 24 24 24 24 24 24 24 24 24 24 24 24 24 24 25 25 25 25 25
15 15 16 16 16 16 16 16 16 17 17 18 18 18 19 19 19 19 20 20 18 17 17 18 18 17 17 17 16 16 16 17 17 17 17 17 17 17 17 17 17 17 17 17 17 17 18 18 18 19 19 21 23 25 27 28 28 27 27 26 26 25 25 25 25 25 24 24 24 24 24 24 24 24 24 24 24 24 24 24 24 24 24 24 24 24 25
15 15 15 15 15 15 15 15 16 16 17 17 18 18 19 19 20 19 19 19 19 17 17 18 18 17 17 16 16 15 15 16 16 16 16 16 16 16 16 17 17 16 17 17 17 17 17 17 18 18 19 19 20 22 25 27 28 28 27 26 26 26 25 25 25 25 25 24 24 24 24 24 24 24 24 24 24 24 24 24 24 24 25 25 25 25 25
15 15 15 15 15 15 15 16 16 17 17 17 17 17 18 18 19 19 19 19 18 16 16 17 17 17 16 15 15 15 15 15 15 15 15 16 16 16 16 16 16 16 16 16 16 17 17 17 17 18 18 18 19 19 21 24 27 28 28 27 26 26 26 26 25 25 25 25 24 24 24 24 24 24 24 24 24 24 24 24 24 24 24 25 25 25 25
14 14 15 15 15 15 16 16 16 17 17 17 17 17 17 16 17 18 18 17 16 15 15 16 16 16 16 15 15 15 15 15 15 15 15 15 15 15 15 16 16 16 15 16 16 16 16 16 17 17 17 18 18 18 19 21 24 26 28 27 27 26 26 26 26 25 25 25 25 24 24 24 24 24 24 24 24 24 24 24 24 24 24 24 25 25 25
14 14 15 15 15 15 16 16 16 16 16 17 17 17 16 15 15 16 16 15 14 14 15 15 15 15 15 15 15 15 15 15 15 15 15 15 15 15 15 15 16 16 15 15 15 15 16 16 16 16 17 17 17 18 19 20 22 24 26 27 27 27 26 26 26 26 25 25 25 25 25 24 24 24 24 24 24 24 24 24 24 24 24 24 24 25 25
14 14 14 14 15 15 16 16 16 16 16 16 16 16 15 14 14 15 15 14 13 14 14 14 14 15 15 15 15 14 14 14 14 15 15 15 15 15 15 15 16 15 15 15 15 15 15 16 16 16 16 16 17 17 18 19 21 22 24 25 26 26 26 26 26 26 25 25 25 25 25 25 24 24 24 24 24 24 24 24 24 24 24 24 24 25 25
13 13 13 14 15 15 15 16 16 16 16 15 15 15 15 13 13 14 14 13 13 13 13 14 14 14 15 15 14 14 14 14 14 14 14 15 15 15 15 15 15 15 15 16 15 15 15 15 16 16 15 15 16 17 18 19 19 21 22 23 25 25 26 26 26 26 26 25 25 25 25 25 24 24 24 24 24 24 24 24 24 24 24 24 25 25 25
13 13 13 13 14 14 14 15 14 14 14 14 14 15 15 13 12 13 13 13 13 13 13 13 13 13 15 15 14 14 14 14 14 14 14 15 15 15 15 15 15 15 15 15 15 15 15 15 15 15 15 15 16 16 17 18 18 19 20 22 23 24 25 25 26 26 26 25 25 25 25 25 25 24 24 24 24 24 24 24 24 24 24 25 25 25 25
13 13 12 12 12 12 14 14 13 13 13 13 13 14 14 13 12 12 12 12 13 13 13 13 13 14 15 16 15 14 13 14 14 14 14 14 15 15 15 15 15 15 15 15 15 15 15 15 15 15 15 15 15 16 17 17 17 18 19 20 21 22 23 24 25 25 26 26 25 25 25 25 25 25 25 24 24 24 24 24 24 24 25 25 25 25 25
12 12 12 11 12 13 13 13 13 12 12 12 13 13 14 13 12 12 12 12 13 12 13 13 13 14 15 15 14 13 13 13 13 13 14 14 14 15 15 15 15 15 15 15 15 15 15 15 15 15 15 15 15 16 16 17 17 18 18 18 19 20 21 22 23 24 25 25 25 25 25 25 25 25 25 25 25 24 24 24 24 25 25 25 25 25 25
12 12 11 12 12 13 13 12 12 12 12 13 13 13 13 12 11 12 12 12 12 12 12 12 12 13 13 13 13 13 13 13 13 13 13 13 14 14 14 14 15 15 14 15 15 15 15 15 15 15 15 15 15 15 16 16 17 17 17 18 18 18 19 20 22 23 24 24 25 25 25 25 25 25 25 25 25 25 25 25 25 25 25 25 25 25 25
11 11 11 11 12 13 12 12 12 12 12 13 13 13 12 11 11 12 12 12 12 12 12 12 12 12 13 13 13 13 13 13 13 13 13 13 14 14 14 14 14 14 14 15 15 15 15 15 15 15 14 14 15 15 15 16 16 17 17 17 17 17 18 19 20 21 22 23 24 25 26 26 25 25 25 25 25 25 25 25 25 25 25 25 25 25 25
10 11 11 11 12 12 12 12 12 12 13 13 12 12 11 10 11 12 12 12 12 12 11 12 12 12 13 13 13 13 13 13 13 13 13 13 13 13 14 14 14 14 14 14 14 15 15 15 15 14 14 14 14 14 15 15 16 16 16 17 17 17 18 18 19 19 21 22 23 24 25 26 26 26 26 25 25 25 25 25 25 25 25 25 25 25 25
10 10 10 11 12 12 11 12 13 13 13 12 11 11 10 11 11 11 11 11 11 11 11 11 11 12 12 12 12 12 12 12 12 12 13 13 13 13 13 13 14 14 14 14 14 14 14 14 14 14 14 14 14 14 15 15 15 15 16 17 17 17 18 18 18 19 20 21 22 23 24 25 26 26 26 26 26 25 25 25 25 25 25 25 25 25 25
11 10 10 11 12 12 11 12 13 12 12 12 11 10 10 11 11 11 11 11 11 11 11 11 11 11 11 12 12 12 12 12 12 12 12 12 12 12 13 13 13 13 13 14 14 14 14 14 14 14 14 14 13 14 14 15 15 15 16 16 17 18 18 19 19 19 19 20 21 22 24 25 26 26 26 26 26 26 25 25 25 25 25 25 25 25 25
11 11 12 12 12 11 11 12 12 12 12 12 11 11 10 10 10 10 10 10 10 10 10 10 10 10 11 11 11 11 12 12 12 12 12 12 12 12 12 12 13 13 13 13 13 14 14 14 14 14 14 14 13 13 14 15 15 15 15 16 17 18 18 19 19 20 20 21 21 22 23 24 26 26 26 26 26 25 25 25 25 25 25 25 25 25 25
11 11 12 11 11 11 11 11 12 11 12 12 11 11 10 10 10 10 10 9 10 10 10 10 10 10 10 10 11 11 11 11 11 11 11 12 12 12 12 12 12 12 13 13 13 13 14 14 14 14 14 14 14 13 14 14 15 15 15 16 17 18 18 19 20 20 20 21 21 22 23 24 25 26 26 26 26 25 25 25 25 25 25 25 25 25 25
11 12 12 11 11 11 11 12 12 11 11 11 11 11 10 10 10 10 9 9 9 10 10 10 10 10 10 10 10 10 10 11 11 11 11 11 11 11 11 11 12 12 12 12 13 13 13 14 14 14 14 14 14 14 14 14 15 15 15 16 17 17 18 19 19 20 20 20 21 21 22 24 25 26 26 26 26 26 25 25 25 25 25 25 25 25 25
10 11 12 11 11 11 11 11 11 11 11 11 11 10 10 10 9 9 9 9 9 9 9 9 9 9 10 10 10 10 10 10 10 10 10 11 11 11 11 11 11 11 12 12 12 12 13 13 14 14 14 14 14 14 14 14 14 15 15 15 16 17 17 18 19 20 20 20 21 21 22 23 25 26 26 26 26 26 26 26 26 25 25 25 25 25 25
10 11 11 11 10 10 11 11 10 11 11 11 11 11 10 10 9 9 9 9 9 9 9 9 9 9 9 9 9 9 10 10 10 10 10 10 11 11 11 11 11 11 11 12 12 12 13 13 13 14 14 14 14 14 14 14 14 14 14 15 16 16 17 18 19 19 20 20 20 21 22 24 25 26 26 27 26 26 26 27 27 27 26 26 26 26 26
10 11 12 11 11 12 12 11 11 11 11 11 10 10 10 10 9 9 9 9 9 9 9 9 9 9 9 9 9 9 9 9 10 10 10 10 10 10 11 11 11 11 11 11 12 12 13 13 13 14 14 14 14 14 14 14 14 14 14 15 15 16 16 17 18 19 20 20 20 21 22 24 25 26 26 27 27 27 27 27 27 28 27 27 27 27 26
12 12 12 11 11 12 12 11 12 11 11 10 10 10 10 10 9 9 9 8 8 8 8 9 9 8 9 9 9 9 9 9 10 10 10 10 10 10 11 11 11 11 11 11 12 12 13 13 13 14 14 14 14 14 14 14 14 14 14 14 15 16 16 17 18 19 20 20 20 20 21 23 25 25 26 26 27 27 27 27 27 27 27 28 28 28 27
12 12 12 11 11 12 12 12 12 11 10 10 10 10 9 9 8 8 8 8 8 8 8 8 9 9 9 9 9 9 9 9 10 10 10 10 10 11 11 11 11 11 11 11 12 12 13 13 13 13 14 14 14 14 14 14 14 14 14 14 15 16 16 17 18 19 19 20 20 20 21 23 25 25 25 25 25 26 26 26 26 27 27 27 27 27 27
12 13 13 12 11 12 12 11 11 10 9 9 10 10 9 9 8 8 8 8 8 8 8 8 8 8 8 8 8 8 9 9 9 10 10 11 11 11 11 11 11 11 11 12 12 12 13 13 13 13 13 14 14 14 14 14 13 13 14 15 16 16 17 17 18 19 19 20 20 20 21 23 25 25 25 24 24 24 25 25 25 26 26 27 27 27 27
12 13 12 11 11 11 10 10 10 10 9 9 9 9 9 9 9 9 8 8 8 8 8 7 7 8 8 8 8 8 9 9 9 10 10 10 11 11 11 11 11 11 11 12 12 12 12 13 13 13 13 14 14 14 14 13 13 13 14 15 16 17 18 18 19 19 20 20 20 20 21 22 24 25 25 24 24 24 23 23 24 25 25 26 26 26 27
11 11 12 11 11 11 10 11 11 10 9 8 8 8 8 8 8 8 8 7 7 7 7 7 8 8 8 8 8 9 9 9 9 10 10 10 10 10 11 11 11 11 11 12 12 12 12 12 13 13 13 14 15 14 13 13 13 14 15 16 17 17 18 18 19 19 19 20 20 20 21 22 23 24 25 24 24 24 24 23 23 24 24 25 25 26 26
11 11 11 11 12 11 11 11 10 9 8 8 8 8 7 7 7 7 7 7 7 7 8 8 8 8 8 8 8 8 8 9 9 9 9 9 10 10 10 11 11 11 11 11 12 12 12 13 13 13 13 14 14 13 13 13 14 15 16 16 16 17 17 17 17 18 18 19 20 20 20 21 22 24 24 24 24 24 24 24 23 23 24 24 24 25 25
12 11 11 12 11 10 10 10 9 9 9 8 8 7 7 7 7 7 7 7 7 8 8 8 8 8 8 8 8 8 9 9 9 9 9 9 10 10 10 10 11 11 11 11 11 12 12 12 12 12 13 14 14 13 13 14 14 15 16 16 16 16 16 16 16 17 17 18 18 19 20 21 21 22 23 23 23 23 23 23 23 23 23 23 23 23 24
12 12 11 11 11 10 10 10 10 10 9 8 8 7 7 7 7 7 7 7 7 7 7 7 7 8 8 8 9 9 9 9 10 10 10 10 10 10 10 10 10 11 11 11 11 12 12 12 12 12 12 13 13 12 13 14 15 15 15 15 15 15 15 16 16 16 17 17 18 19 20 20 21 21 21 22 22 22 22 23 23 23 23 22 22 23 23
12 11 11 11 11 10 10 10 10 10 9 8 8 8 7 7 7 7 7 7 7 7 7 7 7 8 8 8 9 9 9 9 10 10 10 10 10 10 10 10 10 11 11 11 12 12 12 12 11 12 12 12 12 12 13 14 15 15 14 14 14 14 15 15 16 16 17 17 17 18 19 20 20 20 20 21 21 21 22 22 22 22 22 22 22 22 23
11 11 11 11 11 10 10 10 10 10 9 8 8 8 7 7 7 7 7 7 7 7 7 7 7 7 8 8 8 9 9 9 9 9 9 9 9 9 10 10 10 11 11 12 12 11 11 11 11 11 12 12 12 12 13 14 14 14 14 14 14 14 14 14 15 15 16 16 17 18 19 19 19 20 20 20 20 21 21 21 21 21 21 21 21 22 22
11 11 11 11 11 11 11 10 9 9 9 9 8 7 7 6 7 7 7 7 7 7 7 7 7 7 8 8 8 8 8 9 9 9 9 9 9 9 10 10 10 11 11 11 11 11 11 10 10 11 12 12 12 13 13 14 14 13 13 13 13 13 13 14 14 14 15 15 16 17 18 18 19 19 19 20 20 20 21 21 21 21 21 21 22 22 22
11 11 11 11 10 10 10 10 10 9 9 8 7 6 6 7 7 7 7 7 7 7 7 7 7 7 7 8 8 8 8 8 9 9 9 9 9 9 10 10 11 11 11 11 11 11 10 10 10 11 11 11 12 13 13 13 13 13 13 13 13 13 13 13 13 13 13 14 15 16 17 17 18 19 19 20 20 20 20 20 20 21 21 21 21 21 21
9 9 9 9 9 9 9 9 10 10 9 9 8 7 7 7 7 7 7 7 7 6 6 7 7 7 8 8 8 8 9 9 9 9 9 10 10 10 11 11 11 11 10 10 10 10 10 10 10 11 11 11 11 12 13 12 12 12 12 12 12 12 12 12 12 12 12 13 13 14 15 16 16 17 18 19 19 20 20 20 20 20 20 20 20 20 19
9 10 9 9 9 9 9 8 8 8 8 8 8 7 7 7 7 7 7 7 6 6 7 7 7 8 8 8 8 8 9 9 9 9 10 10 10 11 11 11 10 10 9 9 9 9 9 10 10 11 11 11 11 12 12 12 11 11 11 11 11 11 11 11 11 11 11 12 12 13 14 14 15 15 16 17 18 19 20 19 20 20 20 19 19 18 18
11 10 10 10 10 10 9 9 9 9 8 8 8 7 7 7 7 7 6 6 6 7 7 7 7 8 8 8 8 8 8 9 9 9 10 10 10 10 9 9 9 9 9 8 8 9 9 10 10 10 10 10 10 11 12 12 11 10 10 10 10 10 10 10 10 10 10 11 11 12 13 13 14 14 14 15 16 18 19 19 19 19 19 18 18 17 17
11 11 10 10 10 10 9 9 9 9 8 8 8 8 7 7 7 7 6 6 6 7 7 7 7 7 8 8 8 8 8 8 8 8 9 9 9 8 8 8 8 8 8 8 8 8 9 9 9 9 9 10 10 11 11 11 10 10 9 10 10 10 10 9 9 9 9 10 10 10 11 12 12 12 12 13 14 15 16 17 17 17 16 15 15 15 15
10 10 10 10 10 10 9 9 9 9 9 8 8 8 7 7 7 6 6 6 6 7 7 7 7 7 7 7 8 7 7 7 7 8 8 8 8 8 8 7 8 8 8 8 8 8 9 9 9 9 9 9 9 10 10 10 10 9 9 9 9 9 9 9 9 9 9 9 9 9 9 10 10 10 11 11 11 12 13 14 14 14 14 13 13 12 12
9 9 10 10 10 9 9 9 9 9 9 8 8 8 7 7 7 6 6 6 6 7 6 6 7 7 7 7 7 7 7 7 7 7 7 8 8 8 7 7 7 7 7 7 7 8 8 8 8 8 8 9 9 9 9 9 9 9 8 9 9 9 8 8 8 8 8 8 8 8 8 8 9 9 9 10 10 10 11 11 12 12 12 11 11 10 10
9 9 10 9 10 9 9 8 9 9 9 9 8 8 8 7 7 6 6 6 6 6 6 6 7 7 6 6 6 6 6 6 6 6 7 7 7 7 7 7 7 7 7 7 7 7 7 7 8 8 8 8 9 9 9 8 8 8 8 8 8 8 8 8 8 8 8 8 8 8 8 8 8 8 8 8 9 9 9 10 10 10 9 9 9 8 8
9 9 9 9 9 9 9 8 9 9 9 9 8 8 8 7 7 6 6 6 6 6 6 6 6 6 6 6 6 6 6 6 6 6 6 6 6 7 7 7 6 7 7 7 6 6 6 7 7 7 7 7 8 8 8 8 8 8 8 8 8 8 8 8 7 7 7 7 7 7 8 7 7 7 7 8 8 8 8 8 8 8 8 8 7 7 7
9 9 9 9 9 9 9 9 9 8 8 9 8 8 7 7 7 6 6 6 6 6 6 6 6 6 6 6 5 5 5 5 5 6 6 6 6 6 6 6 6 6 6 6 6 6 6 6 6 7 7 7 7 7 7 7 7 7 7 7 7 7 7 7 7 7 7 7 7 7 7 7 7 7 7 7 7 7 7 7 7 7 7 7 6 6 6
9 10 9 9 9 9 9 9 9 8 8 9 8 8 7 7 7 6 6 6 6 6 6 5 5 5 5 5 5 5 5 5 5 5 6 6 6 6 6 6 6 6 6 6 6 6 6 6 6 6 6 6 6 7 7 6 6 6 6 7 7 7 7 7 7 7 7 7 6 7 7 7 7 7 7 7 7 7 7 7 7 6 6 6 6 6 5
10 10 9 9 9 9 9 9 9 8 9 9 8 8 7 7 7 6 6 6 6 6 5 5 5 5 5 5 5 4 5 5 5 5 5 5 6 6 6 6 6 5 5 5 5 5 5 5 5 6 6 6 6 6 6 6 6 6 6 6 6 6 6 6 6 6 6 6 6 6 6 6 6 6 6 6 6 6 7 7 6 6 6 6 5 5 5
10 10 10 10 9 9 10 10 10 9 9 8 8 7 7 7 7 6 6 5 5 5 5 5 5 5 5 5 5 5 5 5 5 5 5 5 5 5 5 5 5 5 5 5 5 5 5 5 5 5 5 5 5 5 5 5 5 5 5 5 6 6 6 6 6 6 6 6 6 6 6 6 6 6 6 6 6 6 6 6 6 6 5 5 5 4 4
10 10 10 10 10 9 10 10 10 9 8 8 7 7 7 7 6 6 6 5 5 5 5 5 5 5 5 5 5 5 5 5 5 5 5 5 5 5 5 5 5 5 5 5 5 5 5 5 5 5 5 5 5 5 5 5 5 5 5 5 5 5 5 5 5 5 5 5 5 5 5 5 5 5 5 5 5 5 5 5 5 5 5 5 4 4 4
10 10 10 10 10 9 9 9 9 8 8 7 7 7 7 7 6 6 6 5 5 5 5 5 5 5 5 5 5 5 5 5 5 5 5 5 5 5 5 5 5 5 4 4 4 4 5 5 5 4 4 4 4 4 4 5 5 4 4 5 5 5 5 5 5 5 5 5 5 5 5 5 5 5 5 5 5 5 5 5 5 5 5 4 4 4 4
10 10 10 10 10 9 9 9 8 8 8 7 7 7 7 7 6 6 6 6 6 5 5 5 5 5 5 5 5 5 5 5 5 5 5 5 5 5 5 5 5 5 4 4 4 4 4 4 4 4 4 4 4 4 4 4 4 4 4 4 4 4 4 4 4 4 5 5 4 4 4 4 4 4 5 5 5 5 5 5 5 4 4 4 4 4 4
9 9 9 9 10 10 9 9 8 8 8 7 7 7 7 7 7 6 6 6 6 6 5 5 5 5 5 5 5 5 5 5 5 5 5 5 5 5 5 5 5 5 4 4 4 4 4 4 4 4 4 4 4 4 4 4 4 4 4 4 4 4 4 4 4 4 4 4 4 4 4 4 4 4 4 4 4 4 4 4 4 4 4 4 4 4 4
9 9 9 10 10 10 10 9 9 8 8 8 7 7 7 7 7 6 6 6 6 6 5 5 5 5 5 5 5 5 5 5 5 5 5 5 5 5 5 5 5 5 5 4 4 4 4 4 4 4 4 4 4 4 4 4 4 4 4 4 4 4 4 4 4 4 3 3 3 3 3 3 4 4 4 4 4 4 4 4 4 4 4 4 4 4 4
10 10 10 10 10 10 9 9 8 8 8 8 7 7 7 7 7 6 6 6 6 6 6 6 6 6 6 6 6 6 5 5 5 5 5 5 5 5 5 5 5 5 5 5 5 4 4 4 4 4 4 4 4 4 4 4 4 4 4 4 4 4 4 4 3 3 3 3 3 3 3 3 3 3 3 3 3 4 4 4 4 4 4 4 5 5 5
Height
832 829 828 828 829 829 828 827 825 823 821 820 821 821 815 816 822 818 811 812 817 817 811 805 804 803 801 801 799 795 791 788 786 783 780 780 778 776 775 774 772 770 769 767 766 764 763 761 759 757 756 756 756 757 758 760 763 765 768 771 773 775 777 778 779 781 784 787 789 791 794 796 798 800 803 805 807 809 811 813 815 817 819 821 822 822 824
831 830 829 827 828 829 829 828 826 824 822 819 819 817 812 812 814 811 808 811 816 818 813 806 804 804 803 803 801 798 796 793 791 788 786 786 784 782 781 779 778 775 773 771 770 768 766 764 763 761 759 758 757 756 756 758 760 763 766 768 770 773 774 775 777 780 782 784 787 789 791 792 794 797 799 802 805 806 808 810 812 814 816 818 819 820 821
831 830 829 828 829 831 831 829 825 822 821 818 816 815 811 809 809 807 808 811 813 815 812 808 806 804 803 804 803 802 801 799 796 793 792 790 789 787 785 784 782 779 775 774 772 770 769 768 766 764 763 761 759 757 756 756 757 759 761 764 766 768 770 772 775 778 780 782 784 786 787 789 791 793 796 799 801 803 805 807 809 811 813 814 815 817 818
832 829 829 829 827 826 826 826 823 820 819 818 816 815 812 811 809 808 808 811 814 816 813 810 808 806 806 807 805 804 804 802 799 798 797 795 792 790 789 787 785 782 778 777 775 774 773 771 769 767 765 763 760 758 756 756 756 756 757 759 761 763 765 768 771 774 776 778 780 782 783 785 787 790 793 795 798 800 802 804 806 808 809 810 811 813 815
835 831 829 827 825 824 823 823 822 820 819 818 816 815 815 815 814 813 813 815 818 818 815 813 812 810 810 809 807 806 806 804 802 802 801 798 794 793 793 791 788 785 782 780 779 777 775 773 772 770 768 765 763 760 758 756 755 754 754 754 756 758 761 765 768 770 773 775 777 778 780 782 784 787 789 791 793 795 797 800 803 804 805 806 808 809 811
838 833 829 828 830 829 822 817 817 819 819 818 816 816 816 818 818 817 818 820 821 819 818 818 816 813 812 811 809 807 806 805 804 803 802 800 796 795 795 794 791 787 784 782 781 779 776 775 773 771 769 767 764 761 759 756 754 754 753 752 753 755 758 761 763 766 769 771 773 775 777 780 782 785 786 788 789 791 794 796 799 800 801 803 804 805 807
840 836 834 836 835 829 821 815 814 815 817 817 818 819 820 821 820 818 819 822 822 821 820 819 817 815 812 811 810 808 807 806 804 804 802 800 798 798 798 796 793 790 786 784 782 779 777 776 774 771 769 767 764 762 759 757 755 754 753 752 753 754 755 757 759 762 764 767 769 771 773 776 779 781 782 784 785 787 790 792 793 794 796 798 800 801 802
842 842 843 840 831 824 819 816 814 814 815 818 821 822 821 822 822 821 821 822 822 821 820 818 817 815 811 810 811 809 808 807 806 805 804 801 800 801 800 797 794 791 789 786 783 781 779 778 776 773 770 768 766 763 761 758 756 754 753 753 752 753 754 755 756 758 760 762 764 766 769 772 774 776 778 779 781 783 786 787 789 790 792 793 794 796 797
842 846 846 839 833 829 823 818 819 821 820 821 823 824 821 821 823 822 822 822 821 820 819 817 816 813 810 811 812 809 808 808 807 807 806 804 802 801 798 796 794 792 790 787 784 783 781 780 778 775 772 768 767 765 762 759 756 754 754 753 752 753 753 755 756 756 757 758 760 762 765 768 769 771 773 774 777 780 782 784 785 786 787 788 789 791 793
841 845 847 845 844 840 830 825 826 826 825 825 826 826 823 821 822 822 822 822 821 820 819 818 815 811 808 809 810 809 809 809 808 807 806 805 803 801 797 795 793 792 790 787 785 784 782 781 780 777 773 769 768 767 764 760 757 755 754 753 753 752 752 754 755 756 757 757 758 759 762 763 765 767 769 771 773 776 778 779 780 781 782 783 784 786 787
844 847 849 849 847 839 831 828 828 827 827 826 827 828 825 821 822 823 822 821 821 820 820 818 816 814 811 811 811 810 810 809 808 807 805 803 802 800 797 794 792 791 790 787 786 784 782 780 779 776 773 771 770 769 765 760 756 754 753 753 753 752 752 752 753 754 755 755 756 757 758 759 761 763 765 767 769 771 773 774 776 777 779 780 780 780 782
847 847 849 846 840 833 830 830 829 828 826 825 829 832 828 823 824 824 822 822 821 821 820 819 819 819 818 816 814 811 810 809 808 807 805 802 800 798 796 795 793 791 789 786 784 783 781 780 778 776 774 772 770 769 765 760 755 753 753 753 752 752 751 750 750 751 751 752 753 755 755 756 758 760 761 763 765 767 768 770 771 773 774 775 775 776 777
849 847 848 844 835 830 830 830 828 827 826 827 832 832 827 826 826 823 822 823 821 820 821 820 820 820 817 815 813 810 809 808 807 806 805 802 800 798 796 795 793 791 788 785 783 782 781 781 778 776 773 771 768 766 764 760 756 753 752 751 750 750 749 748 748 748 748 749 750 751 752 753 755 757 758 760 761 762 764 765 767 768 769 770 771 771 772
851 848 847 844 836 829 828 829 826 826 827 829 829 827 826 828 826 822 822 822 820 820 821 820 819 818 815 813 811 810 809 807 805 804 803 801 799 797 795 793 792 790 787 784 782 780 780 780 778 776 774 771 768 765 763 759 755 752 750 749 748 748 747 746 746 745 745 746 746 747 748 749 751 752 753 755 756 758 760 761 762 763 764 765 766 767 768
850 852 851 847 837 829 827 827 825 825 826 826 826 826 827 826 824 823 823 822 820 820 820 818 818 816 814 812 810 808 807 806 803 802 801 800 798 796 794 791 790 788 786 783 781 780 779 778 776 774 772 770 767 764 761 757 753 751 749 747 746 746 745 744 743 743 742 742 742 744 745 745 746 746 747 750 751 753 755 756 757 758 759 760 762 763 764
845 851 847 837 829 825 827 827 826 825 825 824 825 826 826 824 823 824 823 821 821 820 818 817 816 815 814 812 809 807 805 804 802 800 798 798 797 795 793 790 788 787 785 782 780 779 777 775 773 771 768 766 764 762 759 755 751 749 748 746 745 744 743 742 741 740 740 739 739 740 741 741 741 741 742 744 746 747 749 751 752 753 754 756 757 758 759
837 836 830 825 823 825 826 825 824 824 823 822 824 824 824 824 823 822 822 821 820 818 817 815 813 812 812 810 808 806 803 801 801 799 796 795 794 792 791 789 787 785 782 779 777 775 773 771 768 766 764 762 760 759 757 753 750 748 746 744 743 742 741 739 738 737 737 737 736 736 737 737 737 736 738 739 740 742 744 746 747 748 749 751 752 752 753
833 827 822 823 824 824 823 822 822 822 822 821 822 822 822 822 821 820 820 819 817 816 816 814 811 809 809 808 806 804 802 799 798 797 794 792 791 790 789 787 786 783 780 777 773 770 768 767 764 760 759 758 757 755 754 752 750 746 744 743 741 740 738 737 735 734 733 733 732 732 732 732 732 731 732 734 735 737 739 741 742 743 744 745 746 747 748
832 824 819 820 821 820 820 821 820 820 820 819 819 820 820 819 818 818 817 815 815 814 813 812 810 806 805 805 804 802 800 797 795 794 792 789 788 787 786 785 784 782 779 776 771 767 764 761 759 756 754 753 753 752 750 749 747 744 742 741 739 737 735 733 732 730 729 728 728 727 727 727 727 726 727 729 731 732 734 735 736 737 738 740 741 742 743
831 823 817 819 820 819 819 819 819 818 818 817 817 817 817 816 815 815 813 813 812 811 810 810 808 804 802 802 801 799 797 794 792 790 789 787 785 783 782 782 781 780 777 775 771 766 761 757 755 754 752 750 750 749 747 746 744 741 738 737 735 733 731 729 727 726 724 724 723 723 723 722 722 721 722 723 725 726 727 728 729 731 732 734 735 736 737
829 823 817 818 820 818 817 818 817 816 815 815 815 814 814 814 813 812 811 810 809 809 808 807 806 802 798 798 797 796 794 791 789 788 786 784 782 780 778 778 778 776 775 773 769 765 760 756 753 751 750 749 748 746 745 743 740 737 734 733 731 729 726 724 723 721 720 720 719 719 718 717 716 715 715 716 718 718 719 720 721 722 724 725 727 729 730
826 819 813 814 815 814 813 813 813 813 813 813 813 812 812 811 810 809 808 807 805 805 804 804 803 800 795 793 794 793 790 788 787 785 783 782 779 776 775 775 774 773 772 770 767 763 759 755 753 750 747 746 746 745 743 740 737 734 731 730 729 725 722 720 719 718 717 716 716 715 714 712 711 710 710 710 711 711 712 713 713 714 715 716 718 721 723
815 809 808 811 812 810 809 810 810 810 810 810 811 810 810 809 808 807 806 804 802 801 800 799 799 796 792 790 790 788 786 785 784 781 780 779 776 773 772 771 770 769 768 767 766 763 758 755 753 749 746 744 743 743 740 737 734 731 730 729 727 723 720 718 716 715 715 713 713 711 710 708 706 706 705 706 706 706 707 708 709 710 711 712 714 716 718
806 804 805 808 809 807 806 806 807 807 807 808 808 807 807 807 806 805 804 803 800 797 795 794 794 793 790 788 786 784 782 782 781 778 776 775 773 771 769 767 767 766 765 763 762 760 758 756 752 749 746 743 742 740 737 734 732 729 727 727 725 721 718 715 713 712 711 710 709 707 705 703 702 701 701 701 702 702 702 703 704 706 707 709 711 713 714
802 800 802 804 804 803 803 804 804 805 805 805 805 805 805 805 804 803 801 799 797 795 793 790 789 789 787 784 782 780 778 777 777 775 772 770 769 767 765 763 763 763 761 760 759 757 756 754 751 748 746 743 740 738 735 732 729 727 725 723 720 717 714 712 710 709 708 706 705 703 701 699 698 697 697 697 697 697 698 700 702 703 704 705 707 708 710
799 798 801 803 803 802 803 803 803 803 802 803 803 802 802 802 801 800 798 796 794 793 791 788 786 784 783 780 778 776 774 773 772 771 768 765 765 764 761 760 759 759 758 757 755 753 751 750 748 746 743 740 739 736 733 729 727 724 722 720 716 712 709 708 707 706 704 703 702 700 698 696 694 693 692 692 692 693 695 697 699 700 700 701 702 703 705
798 798 800 802 802 801 802 801 801 800 800 800 801 800 800 800 799 798 796 793 791 789 787 785 783 780 778 776 774 772 770 768 767 766 764 761 760 759 758 756 755 755 754 753 752 750 748 746 744 742 739 737 735 733 729 726 724 721 719 717 713 709 705 703 702 702 701 700 699 697 695 693 691 689 688 688 689 690 692 693 694 694 695 695 697 698 700
796 797 798 799 799 799 799 798 798 798 798 799 799 799 799 798 797 796 793 790 788 785 783 781 779 777 774 772 770 767 765 764 762 761 759 756 755 755 754 752 751 751 750 748 747 746 745 743 742 739 736 734 732 729 726 722 720 717 716 714 710 705 702 700 698 698 697 697 696 694 693 691 690 687 686 685 686 687 688 689 690 690 690 692 693 695 697
794 795 796 796 796 796 797 797 797 797 797 797 797 797 797 796 795 794 791 788 785 782 779 777 776 773 771 768 765 763 760 758 757 755 753 752 751 750 749 748 747 746 745 744 743 742 741 740 739 736 732 731 729 726 722 719 717 715 712 710 706 701 698 697 695 694 694 693 692 691 690 689 688 686 684 683 683 684 685 686 686 686 687 689 691 693 694
793 794 795 795 795 796 796 796 796 796 796 796 795 795 795 794 793 791 788 785 782 779 776 774 772 769 766 764 761 758 755 753 751 749 748 747 746 745 745 744 743 742 741 740 739 738 738 737 735 732 729 728 726 723 719 717 715 712 710 707 703 698 696 695 693 691 690 689 688 687 686 685 685 684 683 682 682 682 683 683 683 683 685 686 687 689 690
792 794 794 794 794 795 794 794 794 794 793 794 794 793 792 792 791 788 785 782 779 776 774 771 768 764 761 758 755 753 750 748 745 744 742 741 741 740 740 740 739 738 736 735 735 735 734 732 730 728 726 725 723 720 717 715 712 710 707 704 699 696 694 692 690 688 687 685 684 684 683 682 682 682 682 681 680 679 679 680 680 681 682 683 684 685 686
792 793 793 793 793 793 793 793 793 793 792 792 792 791 790 789 788 786 783 780 777 774 771 768 764 760 756 753 750 747 744 742 740 738 736 736 735 735 734 734 734 733 733 732 732 731 730 729 727 725 723 722 720 717 714 712 709 706 703 700 695 693 692 690 687 685 684 683 682 681 680 679 679 679 679 678 677 676 676 676 677 677 679 680 680 680 682
791 791 792 792 791 791 791 791 791 791 790 790 789 788 787 787 785 783 781 778 775 773 769 765 760 755 750 746 743 740 737 736 734 732 731 730 729 729 728 729 729 729 729 730 729 728 728 726 724 722 720 719 717 715 712 710 707 704 701 697 693 691 690 688 685 683 681 681 679 678 677 677 676 676 675 675 675 674 673 673 673 674 675 675 676 677 678
787 788 789 789 789 789 789 789 789 789 788 788 787 786 786 785 783 781 778 775 773 770 767 761 756 750 745 740 735 732 730 729 726 725 724 724 723 723 723 723 724 725 726 727 727 726 726 724 722 720 718 717 715 713 711 709 706 703 699 696 692 689 688 686 683 681 680 679 678 676 675 675 674 674 674 673 673 673 672 671 671 671 672 673 674 675 677
786 786 787 787 787 787 787 787 787 787 787 786 786 785 784 783 782 779 777 774 771 769 764 758 752 747 740 734 729 725 722 720 719 718 718 718 718 718 718 719 720 722 723 724 725 724 724 722 720 719 717 715 713 712 709 707 705 702 698 694 690 687 686 684 681 680 680 679 677 675 674 673 673 673 672 671 671 671 671 671 671 671 671 672 673 673 675
785 785 786 786 785 785 785 785 786 785 785 785 784 784 783 782 780 778 776 772 770 767 761 756 750 744 738 733 727 721 716 713 712 713 714 714 713 713 714 715 717 719 721 723 723 723 722 720 719 717 715 713 712 709 707 705 703 701 697 693 689 686 685 683 681 681 681 679 677 675 674 673 672 672 671 670 670 669 669 669 669 669 670 670 671 672 674
783 784 784 785 784 784 784 784 784 783 783 783 783 782 781 780 779 777 774 772 769 765 760 755 750 744 739 734 728 722 716 713 711 711 712 712 711 710 711 713 715 718 720 722 722 721 720 718 717 715 713 711 710 708 706 704 702 700 697 694 689 686 684 683 682 682 681 680 678 676 674 674 673 672 671 670 669 668 668 667 667 667 669 670 671 673 674
782 783 783 783 783 783 783 783 783 782 782 782 781 781 780 779 778 775 773 771 768 764 759 755 750 746 741 736 731 725 721 718 716 715 715 713 712 711 712 714 715 717 719 720 720 719 719 717 715 713 712 711 709 708 706 705 703 701 698 695 691 687 685 684 684 684 684 682 680 678 676 676 675 674 672 671 670 669 669 667 667 668 670 672 674 675 676
781 782 783 783 782 783 782 782 782 781 781 781 780 780 779 778 777 775 772 769 767 763 759 755 751 748 744 740 736 731 728 725 722 721 719 717 715 715 715 717 717 718 718 719 718 718 717 716 713 712 711 711 709 708 707 706 704 701 699 696 692 688 686 686 686 686 686 686 684 682 680 679 678 676 675 673 672 672 671 670 669 670 671 673 675 677 678
780 781 782 782 782 782 782 782 781 780 780 780 780 779 778 778 776 774 771 769 766 763 759 755 752 750 747 744 741 737 734 731 728 725 723 722 720 718 719 719 719 719 719 718 717 717 716 714 712 712 711 710 709 708 707 706 704 702 699 696 692 689 688 688 689 689 690 689 688 686 684 683 681 679 678 677 676 676 675 674 673 673 674 675 676 678 680
779 780 781 781 781 781 781 781 781 780 779 779 779 778 778 777 776 774 771 768 765 763 760 757 754 751 749 746 743 740 738 735 732 729 727 724 722 721 721 722 721 721 720 719 718 717 715 713 712 712 711 710 709 708 707 706 704 702 699 696 694 692 692 692 692 693 693 693 691 689 687 686 685 683 682 680 680 681 681 680 678 677 677 678 680 682 683
778 779 780 780 780 780 780 781 780 779 779 778 778 777 777 777 776 774 771 768 766 763 761 758 755 753 750 748 745 742 740 737 735 733 730 728 727 726 726 725 724 723 722 721 719 717 715 714 714 713 712 711 711 710 709 707 705 703 701 699 696 695 695 695 696 697 697 695 692 691 690 689 688 688 687 685 683 685 688 688 685 683 682 681 683 685 687
777 778 778 779 779 779 779 780 780 779 778 778 777 777 777 777 776 774 772 769 767 764 762 760 758 755 753 750 748 745 743 740 737 735 734 733 732 732 730 729 727 726 725 723 720 718 716 716 716 715 714 713 713 712 710 709 707 706 704 702 699 698 698 698 698 699 698 697 695 693 693 692 692 692 693 691 688 688 692 696 695 692 689 687 687 689 691
775 776 777 778 778 778 779 779 779 778 778 777 777 777 777 776 776 774 772 770 768 766 764 762 760 758 756 754 751 749 746 743 741 738 736 735 734 733 732 731 730 729 727 724 721 719 718 718 718 717 716 716 714 713 712 711 710 708 707 705 703 702 701 701 701 701 700 700 699 697 697 697 696 695 697 698 694 690 694 701 704 702 698 696 694 695 697
774 775 776 777 777 778 778 778 778 778 778 777 777 777 777 777 776 775 773 771 770 768 766 765 762 760 758 756 755 753 750 747 745 742 740 738 736 735 735 733 732 730 728 725 722 721 721 721 720 719 718 718 717 716 715 714 712 711 709 708 707 706 705 704 704 704 704 703 703 702 701 702 702 701 701 702 699 695 698 705 710 711 709 707 704 703 704
773 774 775 776 777 778 778 777 777 777 777 777 777 778 777 777 777 776 774 773 772 770 769 767 765 763 761 759 757 755 753 751 748 746 744 742 740 739 737 735 734 732 729 727 726 725 725 724 723 722 721 721 720 719 718 717 715 714 712 711 711 710 709 708 708 708 707 707 707 707 706 706 707 706 706 705 704 703 705 709 712 715 717 717 714 713 713
772 773 775 776 777 777 777 777 777 777 777 777 778 778 778 778 778 777 776 775 774 773 771 769 767 766 764 761 759 757 755 753 750 748 746 744 743 741 739 737 736 734 733 731 730 729 728 727 726 725 724 724 724 724 722 721 719 717 716 715 714 713 712 712 712 712 712 711 711 711 710 710 711 711 711 710 710 711 713 715 716 718 722 724 722 721 721
771 772 774 775 776 777 777 777 777 777 777 778 778 779 779 779 779 778 777 777 776 775 774 772 770 768 766 764 762 761 759 756 753 751 749 747 745 743 742 740 739 738 737 736 734 733 732 731 731 729 727 727 728 728 727 725 723 721 720 719 718 717 717 716 716 717 717 716 715 715 714 714 715 716 716 716 716 718 719 721 722 723 725 727 728 727 728
769 771 773 775 776 777 777 777 777 777 777 778 778 779 779 779 779 779 778 778 777 776 775 774 773 771 769 767 766 764 763 760 757 755 753 751 748 747 746 745 743 742 741 739 738 737 736 735 735 732 730 731 732 732 731 729 727 725 724 723 722 722 721 721 721 721 721 721 721 719 718 718 719 720 720 721 721 722 724 725 727 728 730 732 733 734 735
769 771 773 774 775 776 777 777 777 778 778 778 779 779 779 779 780 780 779 779 778 778 777 776 774 773 772 770 769 767 766 764 761 759 757 755 753 752 751 749 748 747 745 744 743 741 740 739 737 735 734 734 735 736 734 733 731 729 728 727 727 727 726 727 727 727 726 726 726 725 723 723 724 724 725 726 726 727 729 730 731 732 734 736 738 740 742
769 771 772 773 774 776 776 777 778 779 779 779 779 780 780 780 780 780 780 780 779 779 778 777 776 775 774 772 771 770 768 766 764 762 761 759 758 757 756 754 753 751 750 749 747 746 744 743 741 739 739 739 739 740 739 738 736 734 733 732 731 731 731 731 731 731 731 730 730 730 729 729 730 730 731 732 732 733 734 735 735 737 739 741 742 744 746
769 770 772 773 774 776 777 778 779 779 779 779 779 780 780 781 781 781 781 781 781 780 780 779 778 777 776 775 773 772 770 768 767 766 765 764 763 762 761 759 758 756 754 753 751 750 748 747 746 745 744 744 744 744 743 742 740 739 738 737 736 736 735 735 735 734 734 734 734 734 734 734 735 735 736 737 737 738 738 739 740 741 742 744 746 747 747
Wind_Speed
1 2 3 3 2 1 2 3 3 5 6 5 2 3 4 2 2 4 6 4 4 5 9 11 10 9 10 10 10 10 11 12 12 13 16 17 17 17 17 17 16 16 15 14 16 20 22 23 25 24 19 10 9 21 27 27 27 30 32 32 33 34 34 36 37 38 38 37 38 38 38 38 39 40 40 39 39 38 37 36 36 36 36 36 35 36 36
1 2 3 3 4 3 3 2 3 3 4 5 5 5 6 5 6 7 7 4 1 3 7 8 7 7 7 7 7 10 13 14 14 15 15 16 16 16 16 15 14 14 14 14 16 20 23 24 24 24 24 23 17 8 19 27 27 28 30 31 32 33 34 36 36 36 36 36 36 36 37 38 40 40 40 39 38 38 38 38 37 36 36 35 35 35 35
3 3 2 4 4 4 4 4 5 5 5 6 5 5 6 5 6 5 3 2 2 2 6 7 6 5 6 8 9 10 12 13 14 15 14 14 15 15 15 15 14 13 13 14 17 19 21 23 24 23 23 23 23 19 8 18 27 29 30 32 34 34 35 36 35 35 36 36 35 36 38 39 39 39 40 39 38 38 38 38 38 37 36 36 36 36 35
4 4 5 7 6 4 3 2 2 2 2 2 2 2 2 2 4 4 1 1 1 3 6 6 6 7 8 9 10 9 9 10 13 14 13 13 14 15 15 15 14 15 15 14 16 18 20 22 23 24 25 24 24 25 21 11 16 27 32 33 34 36 36 36 36 36 36 36 36 37 38 39 40 40 39 38 37 37 37 38 37 37 37 37 38 37 36
4 5 6 8 8 5 2 1 1 2 2 0 1 2 3 2 1 2 1 1 0 3 5 6 7 8 7 7 8 8 8 9 10 11 11 12 12 13 13 14 13 13 14 14 16 18 19 21 22 23 23 23 24 25 24 21 12 17 30 33 34 35 35 35 35 36 35 35 36 37 38 39 39 38 37 37 38 38 38 37 36 36 37 38 38 38 37
3 6 6 7 6 4 3 3 0 3 3 2 2 1 2 3 3 1 2 2 3 4 4 5 6 6 5 5 6 7 8 8 8 9 9 10 11 12 11 11 11 12 14 16 19 22 22 23 24 22 22 24 25 25 24 22 18 10 17 26 30 33 34 34 35 35 35 36 37 38 38 37 36 36 36 38 39 38 37 36 36 37 38 38 38 38 38
2 4 5 5 3 4 4 5 3 3 3 3 3 2 2 2 3 3 3 3 4 4 3 4 5 6 3 3 6 9 9 9 9 9 9 9 10 10 10 10 10 13 16 19 21 24 26 29 28 25 25 27 27 26 25 21 19 16 9 12 20 26 31 33 34 35 36 37 37 38 38 37 36 36 37 38 38 38 37 37 37 38 38 37 38 38 38
0 2 2 1 4 5 7 8 6 2 3 3 3 0 3 2 2 2 1 1 3 3 4 3 3 7 6 1 4 8 9 10 10 9 9 9 8 7 9 10 11 14 17 19 21 23 25 29 28 26 27 29 27 25 23 19 18 18 14 8 8 15 23 28 32 34 36 37 37 37 37 36 36 36 37 39 39 38 37 37 37 37 37 37 38 38 38
1 1 2 2 4 7 7 5 3 2 2 2 1 2 4 3 1 1 1 1 3 3 4 5 5 7 5 3 2 5 9 10 10 10 10 10 10 11 12 12 13 15 17 19 21 22 25 27 26 26 27 28 27 25 21 17 18 18 16 13 9 7 11 17 24 30 33 35 36 36 35 35 36 37 38 38 38 37 35 35 36 36 37 38 38 38 37
2 1 2 3 3 4 3 2 3 4 3 3 2 2 3 2 2 2 1 2 3 3 3 6 7 6 2 3 3 4 9 9 9 10 12 13 14 15 16 16 16 16 17 18 19 21 24 25 26 27 27 26 26 24 19 16 17 17 16 15 14 12 10 10 14 20 25 29 31 33 34 35 36 37 37 37 36 36 36 36 36 36 37 37 37 37 38
1 2 2 2 2 4 4 3 4 5 4 4 3 3 2 1 2 3 2 2 4 3 3 5 5 5 2 2 3 5 9 9 8 9 11 14 16 17 17 18 18 18 18 18 18 20 22 24 27 27 26 24 22 20 19 18 17 16 15 15 15 15 14 12 11 13 18 24 27 29 31 34 37 36 36 36 35 35 36 36 36 36 36 35 36 37 38
2 3 3 3 2 3 4 3 5 6 4 3 2 2 2 2 4 4 3 4 4 3 3 4 3 2 2 4 5 6 8 9 9 10 11 14 16 18 18 19 19 19 19 18 18 19 21 24 26 27 25 23 20 18 19 19 17 17 17 17 17 18 18 16 14 12 13 19 25 28 29 31 33 33 34 34 34 34 35 36 35 35 35 35 35 36 37
4 4 3 3 3 3 3 3 5 6 3 1 1 3 2 2 5 5 3 4 5 3 2 1 0 2 4 6 7 7 8 9 9 11 14 16 17 19 20 21 20 19 20 19 19 20 21 23 24 24 24 24 23 21 19 18 18 19 19 19 19 19 19 19 18 16 14 15 20 27 30 31 30 31 33 33 34 35 35 34 34 34 34 35 35 35 36
2 3 3 4 4 2 2 3 4 3 1 2 3 3 1 2 5 5 3 4 5 4 3 3 3 4 6 7 8 8 8 8 8 10 12 15 17 20 22 22 21 20 20 20 20 22 24 24 23 22 21 21 22 23 21 19 21 22 22 21 20 20 20 20 20 19 17 16 17 22 28 31 31 32 33 33 34 35 34 33 34 34 35 34 34 34 34
2 2 3 3 3 2 2 1 2 1 3 2 2 3 2 2 3 4 3 4 4 5 6 5 5 5 6 8 9 8 7 8 9 11 12 13 15 19 21 22 22 21 21 21 20 22 25 26 24 22 20 19 20 21 22 22 24 24 23 22 21 20 21 21 20 20 19 18 17 19 24 29 32 33 33 33 34 34 34 34 33 33 34 34 33 32 32
3 3 4 4 3 4 3 1 1 3 3 2 1 2 3 2 3 3 3 4 5 6 7 8 7 6 6 7 8 9 8 7 9 12 14 14 15 17 19 22 23 22 22 23 23 24 25 26 25 22 21 20 19 20 23 25 26 24 23 22 20 20 21 21 20 19 18 17 17 18 21 25 31 33 33 33 34 34 34 34 33 32 32 32 31 30 30
3 4 6 5 3 3 3 3 4 5 5 3 2 2 3 3 3 3 3 5 6 6 7 9 9 6 5 6 7 8 9 8 8 12 15 17 17 18 19 21 22 23 24 26 26 26 26 27 26 24 22 21 21 22 25 26 26 25 23 21 19 18 20 20 20 19 18 17 18 20 21 23 28 32 32 32 32 33 33 33 32 31 31 30 31 30 30
3 4 6 5 4 4 4 4 4 4 4 4 3 2 3 3 4 4 4 5 6 6 6 8 9 8 7 6 7 8 9 9 10 13 16 18 19 19 19 20 21 23 26 27 28 27 28 28 27 26 25 24 23 26 27 27 25 24 22 20 18 17 17 19 19 19 19 20 21 22 22 24 27 31 32 32 32 32 32 32 32 32 30 30 30 30 29
2 4 4 3 4 4 4 4 4 4 4 4 3 3 4 5 5 5 6 6 6 6 6 7 10 11 10 8 8 8 8 9 10 12 14 18 20 21 20 20 22 23 23 25 26 27 29 30 28 27 28 28 28 29 29 27 26 23 21 19 19 17 17 18 18 18 19 21 22 23 23 24 27 30 32 33 32 32 32 32 32 31 30 29 28 28 28
3 5 6 5 4 4 4 4 5 5 4 5 5 4 5 5 5 6 7 7 6 5 6 7 10 13 12 10 9 8 8 9 10 11 14 18 21 23 23 22 22 21 21 23 25 27 29 31 30 28 28 30 31 31 30 28 26 23 21 20 20 19 18 18 17 17 19 21 22 23 24 24 26 29 32 33 33 34 35 36 34 32 31 30 29 30 31
3 7 7 5 5 6 6 5 6 6 5 5 6 6 5 6 6 7 8 9 8 7 8 8 9 13 14 11 10 10 9 9 11 13 16 19 22 25 25 23 22 22 21 23 25 27 29 31 31 30 29 30 31 32 31 29 27 24 21 21 21 20 19 20 18 18 19 20 21 23 24 25 27 30 33 35 36 38 40 43 42 40 37 35 35 37 36
4 7 6 4 2 5 5 5 7 7 7 6 6 6 6 6 7 7 8 10 11 11 12 11 10 12 14 13 11 11 10 11 14 17 18 19 22 26 26 24 23 23 23 24 25 27 29 30 30 30 31 31 31 31 31 29 27 24 22 21 21 20 18 19 19 18 18 20 23 24 24 25 26 29 33 37 40 41 42 45 48 48 45 43 42 42 40
6 8 7 6 4 5 6 6 7 7 6 5 6 7 7 7 7 7 8 10 12 12 14 15 14 12 13 16 15 12 11 15 19 21 20 20 23 26 28 25 23 23 24 24 24 25 27 29 29 30 33 33 32 32 31 29 27 26 24 23 22 20 18 18 19 19 20 23 25 26 26 25 26 27 30 34 39 42 43 43 45 49 49 48 47 45 41
7 7 7 7 6 6 6 7 7 7 6 6 6 7 6 6 8 9 8 10 13 12 12 15 17 16 16 19 18 14 14 18 22 23 24 23 24 26 27 25 22 22 23 23 24 24 26 28 29 30 31 32 33 33 31 28 27 27 25 24 23 21 19 18 19 20 22 24 26 28 28 26 26 27 27 28 32 37 41 40 40 43 47 48 48 46 44
7 6 5 6 7 7 7 5 5 6 8 7 6 5 6 7 10 12 11 11 14 15 12 13 18 20 20 21 21 19 18 20 22 24 25 25 23 24 26 24 23 22 23 24 26 26 26 28 29 28 28 30 32 32 30 28 27 27 26 25 24 21 18 17 18 20 23 25 26 28 28 26 26 28 27 25 26 29 32 34 34 36 41 45 48 47 46
7 5 3 2 4 5 4 2 3 5 8 8 5 5 7 10 13 15 16 16 17 18 17 16 20 23 23 22 22 22 21 21 23 25 25 24 22 22 25 26 25 24 24 25 26 27 28 28 27 26 26 29 32 31 29 28 27 27 25 24 22 19 16 15 17 20 23 24 25 27 28 27 26 27 28 29 29 27 25 24 26 29 34 40 45 46 46
6 4 4 1 5 5 4 5 5 6 7 8 6 6 10 13 15 17 19 20 20 21 21 21 21 22 22 22 23 23 23 24 24 23 24 24 22 23 26 29 27 25 25 25 26 27 28 26 24 23 26 30 31 30 29 28 26 25 23 20 18 16 14 14 17 20 22 24 25 26 27 27 26 28 30 31 30 27 25 24 25 28 32 36 40 42 44
5 5 5 5 5 5 5 6 7 6 6 7 7 8 10 12 12 12 13 15 17 19 20 21 21 20 20 21 22 22 22 22 21 21 23 25 25 26 29 30 28 26 26 26 26 26 25 23 21 23 26 29 29 29 28 26 24 22 20 17 16 14 13 13 15 17 20 22 24 25 26 26 26 28 29 29 28 28 29 29 29 29 30 31 33 35 38
4 4 5 6 6 5 4 3 4 5 6 7 7 8 8 8 8 9 10 12 14 15 16 18 20 20 20 21 21 20 18 18 19 21 23 26 27 27 28 28 27 26 25 24 25 25 23 19 19 22 25 27 27 28 27 23 20 18 17 15 14 13 12 12 14 17 20 21 22 23 24 25 25 25 26 26 26 26 27 29 30 29 27 26 26 27 30
4 3 4 4 4 3 3 3 4 5 6 6 5 6 7 7 7 8 10 12 12 12 14 17 20 20 21 21 22 22 21 21 22 22 23 25 26 26 26 26 23 20 20 22 23 21 18 16 17 21 24 25 26 27 25 21 17 14 13 13 13 12 11 12 13 16 19 21 20 21 23 24 24 24 23 24 23 23 24 27 28 27 25 24 24 25 27
3 2 2 2 2 2 4 5 5 5 5 5 5 6 6 7 7 9 11 11 10 12 16 19 20 20 21 22 23 24 25 24 25 25 25 26 26 25 25 24 19 15 18 21 19 15 12 13 16 20 22 24 25 25 23 19 15 12 12 12 12 12 12 12 12 14 16 17 17 19 21 22 23 23 22 22 22 23 24 26 25 24 23 23 25 27 28
4 2 3 3 2 3 4 4 4 5 6 6 6 6 6 6 8 9 10 11 12 15 18 19 19 21 24 25 25 25 25 24 25 25 25 25 26 27 27 24 20 20 21 19 13 9 9 12 16 18 20 22 23 23 20 15 12 11 11 11 10 11 12 13 12 12 13 13 13 15 17 20 23 23 22 22 23 25 25 25 24 25 25 24 26 30 30
5 2 4 4 3 4 5 5 5 5 7 6 6 7 7 8 8 10 12 14 15 16 17 19 22 26 29 28 26 24 23 21 21 22 23 23 26 28 26 23 22 22 18 12 8 6 7 10 14 16 18 20 20 18 15 12 10 10 10 9 10 11 12 13 13 13 12 11 10 12 13 16 19 22 24 25 25 25 25 26 26 26 27 28 29 31 31
7 6 5 6 5 5 6 5 5 5 6 6 6 7 8 9 11 13 16 16 15 15 19 24 28 30 30 28 26 24 20 15 13 15 19 22 24 25 23 21 19 17 13 8 4 5 7 9 12 15 18 19 18 15 13 11 10 9 9 9 10 11 12 13 15 15 13 12 11 11 12 14 15 18 22 25 25 24 24 25 26 26 27 27 27 26 26
8 6 7 7 7 7 7 6 5 5 5 5 5 6 8 11 13 15 18 18 16 19 25 29 28 28 26 23 19 17 15 15 15 17 19 22 24 22 19 16 15 13 9 4 2 6 8 10 12 13 15 16 14 12 12 12 10 9 8 8 9 11 12 14 15 16 15 14 13 12 11 12 14 16 18 21 25 26 25 24 24 23 23 22 22 21 21
8 5 4 7 9 9 8 7 8 8 6 5 6 6 8 12 14 16 18 19 19 23 27 28 26 25 22 19 18 16 12 11 18 21 20 18 17 15 14 15 14 11 7 3 4 7 9 11 12 12 12 12 12 12 12 11 11 9 9 9 10 11 13 15 16 17 17 16 15 14 13 12 12 14 15 17 20 24 25 24 24 24 22 21 20 19 18
9 7 6 7 9 9 7 6 8 9 8 7 7 8 9 12 15 17 18 19 20 23 26 25 23 21 19 20 22 21 18 12 4 5 6 7 10 14 16 15 12 10 6 4 6 9 10 11 11 10 9 10 11 11 12 11 10 9 10 11 11 13 14 15 17 18 19 18 17 15 14 13 13 13 13 13 14 17 22 24 24 22 19 17 16 16 16
7 7 6 7 8 6 4 3 5 7 8 7 8 10 11 13 16 18 19 19 20 23 24 24 21 19 19 22 23 21 20 20 17 12 11 12 14 14 13 12 11 9 7 6 7 8 9 11 10 8 9 10 10 9 10 10 9 9 10 11 12 14 15 15 16 18 19 19 18 17 16 16 16 16 15 14 13 11 10 14 13 8 6 7 8 10 13
4 5 6 6 6 4 2 2 4 6 7 7 8 10 13 14 17 19 19 19 19 21 23 23 20 17 16 18 18 19 20 21 20 17 15 14 15 15 14 13 13 11 8 8 9 9 9 11 10 9 10 11 10 9 9 9 8 10 11 11 13 15 16 16 16 17 18 19 19 19 19 19 19 19 19 18 16 14 8 6 10 13 15 17 19 20 21
5 7 7 6 5 4 2 1 3 6 7 7 8 9 12 15 17 17 18 18 18 20 21 21 17 14 14 14 14 15 18 19 19 18 16 14 14 14 12 13 15 14 11 10 11 11 11 12 12 11 11 11 11 10 9 8 9 12 13 13 14 15 16 17 17 17 17 19 20 20 21 21 21 22 23 22 20 18 15 15 17 19 21 23 25 26 26
7 8 7 5 6 5 2 1 3 5 5 7 8 9 11 13 16 16 16 18 19 18 18 18 16 14 14 15 15 16 17 17 18 19 18 16 13 10 8 10 14 14 12 11 12 13 14 15 15 13 11 11 11 11 9 9 11 13 14 15 15 16 16 17 18 18 18 19 20 21 22 23 23 24 25 25 24 22 18 17 19 21 23 26 27 27 29
8 8 7 6 6 5 3 2 3 4 5 6 6 7 9 12 14 15 16 18 18 17 16 17 16 15 16 17 17 18 19 19 18 17 18 18 16 12 8 10 15 15 11 11 14 16 17 18 17 15 13 12 11 10 10 11 13 14 14 15 15 16 16 16 17 18 19 21 23 23 24 25 25 25 25 27 28 27 23 20 19 21 24 27 28 29 29
10 9 7 6 6 5 4 4 4 4 6 6 6 5 7 10 13 15 16 17 16 15 15 15 15 15 17 18 17 17 18 20 20 17 14 16 18 16 13 13 16 15 12 12 16 19 19 19 17 16 14 12 11 10 12 14 15 15 15 16 16 16 16 17 18 19 20 22 23 24 24 25 26 26 25 26 29 31 28 25 22 22 25 28 29 30 31
11 10 7 5 5 4 5 6 6 5 5 5 4 4 6 9 11 14 15 15 15 15 15 15 15 15 16 17 17 16 17 18 20 19 14 10 12 16 17 16 15 15 14 15 18 20 20 19 18 16 15 14 14 14 16 17 17 16 16 17 18 18 19 20 21 21 22 22 23 24 25 25 26 27 27 26 29 33 33 29 25 24 26 28 30 32 31
11 9 7 6 5 3 3 5 5 3 2 2 2 3 5 7 10 12 14 14 15 16 16 16 16 17 16 16 16 18 18 18 19 19 15 9 9 13 16 17 16 16 17 18 20 21 20 19 18 18 17 16 17 18 19 19 19 18 18 17 17 18 20 21 22 23 24 25 25 26 26 26 26 28 28 28 29 33 35 32 29 27 26 27 29 31 31
12 9 7 6 5 1 2 3 1 2 2 0 2 3 4 6 9 12 13 14 15 16 16 16 17 18 18 17 16 17 18 20 21 21 19 15 14 16 17 17 16 17 19 20 22 22 20 19 19 19 19 18 18 20 21 21 21 22 22 20 19 19 20 21 21 22 23 24 25 26 27 28 28 28 29 30 31 32 33 33 33 31 29 28 29 30 30
13 11 8 7 4 3 3 3 3 4 2 1 2 3 5 7 9 11 13 15 15 15 15 16 17 18 19 20 20 19 18 17 19 22 23 22 20 20 20 18 18 18 20 21 21 22 21 20 20 20 19 18 19 20 21 22 23 24 25 24 23 23 22 22 23 23 24 25 26 28 29 30 30 30 31 32 32 32 31 32 33 32 31 30 31 31 31
14 12 11 8 4 6 6 5 5 3 1 1 3 3 3 5 9 11 13 14 15 14 14 16 16 16 17 19 20 21 20 17 15 19 23 25 23 22 21 20 19 18 19 20 21 21 21 21 21 21 22 21 20 19 19 21 22 24 25 26 26 26 26 25 25 25 25 26 27 28 29 30 30 31 31 32 32 32 32 32 32 32 31 31 32 32 33
16 14 11 8 6 7 8 6 4 3 2 2 4 4 3 5 8 10 11 12 12 12 13 13 14 14 16 16 17 19 21 20 19 19 23 26 26 24 22 21 19 18 19 21 22 22 22 21 22 23 25 25 23 21 21 21 22 23 25 26 27 27 28 28 27 27 27 27 27 28 29 30 30 31 32 32 33 33 33 33 32 32 32 32 32 32 32
13 12 11 9 9 9 8 6 5 4 4 5 5 5 4 5 7 9 10 10 10 11 12 13 13 13 15 16 16 17 19 21 22 23 24 26 26 26 24 22 20 20 20 20 21 23 23 23 24 25 25 25 24 23 23 23 23 25 26 27 27 28 29 29 29 29 29 29 29 29 30 30 30 31 31 31 31 31 32 32 33 33 33 32 32 32 31
13 13 12 12 12 11 8 6 6 7 6 6 6 6 6 6 8 9 8 8 8 8 9 11 13 14 15 16 16 17 17 18 20 22 24 25 25 26 25 24 23 22 21 22 22 23 23 24 25 26 26 25 24 24 23 23 24 26 27 28 28 28 28 29 29 29 29 30 30 30 31 31 31 31 31 31 31 31 31 32 33 33 33 32 31 31 31
16 15 14 13 13 12 9 8 8 7 6 6 7 9 8 8 8 8 8 7 7 8 8 9 11 12 13 14 15 16 17 17 18 20 21 22 22 23 24 25 25 24 23 23 23 23 24 24 24 25 26 26 25 25 25 25 25 26 26 27 28 28 29 30 30 30 30 31 31 31 32 32 32 32 32 32 32 32 32 32 32 33 32 32 31 31 30
Wind_Direction
183 216 272 309 347 283 263 286 304 320 335 343 343 266 250 187 143 245 266 322 6 349 356 9 13 4 9 20 16 11 17 18 16 24 30 25 19 18 19 19 18 19 18 15 12 10 6 4 5 5 1 337 244 217 213 211 209 208 206 205 207 208 209 211 212 213 214 215 216 217 218 220 222 224 225 226 226 227 228 230 233 235 235 236 236 237 238
335 306 319 340 356 341 317 276 261 275 281 272 263 249 242 233 225 238 264 288 78 37 359 2 15 10 9 22 26 26 26 20 17 23 28 25 19 15 14 13 13 14 15 12 10 9 9 7 2 359 358 356 349 286 221 211 209 208 206 205 207 209 211 213 215 215 216 216 216 217 218 220 222 224 226 227 227 228 228 229 231 233 235 236 236 237 238
321 310 345 358 354 330 306 274 252 245 247 252 251 243 239 242 246 250 253 214 162 25 355 357 7 7 16 23 26 33 31 22 20 23 23 21 17 12 8 6 7 8 10 9 7 6 5 3 2 359 353 349 350 348 301 220 210 206 205 206 207 209 213 215 215 216 216 217 217 217 219 220 222 223 225 226 227 229 230 230 231 232 233 235 236 237 238
306 315 354 347 338 323 297 277 250 233 240 260 252 253 264 258 258 276 290 191 224 334 344 357 2 9 25 24 19 25 26 23 26 23 17 17 16 10 3 359 1 5 6 4 1 358 355 355 357 357 354 349 345 346 342 305 230 208 204 205 207 209 212 214 215 215 215 216 217 218 219 220 221 223 224 225 227 228 230 231 232 232 233 235 236 237 238
299 314 348 349 350 351 325 255 185 136 131 95 360 344 335 339 321 289 266 206 310 344 347 359 2 10 28 27 19 21 16 18 27 24 16 14 14 10 360 352 356 358 358 358 354 348 347 348 349 350 351 350 345 339 339 335 303 227 208 205 207 210 212 213 214 215 215 216 217 219 220 221 222 222 222 224 225 227 229 231 232 233 234 235 237 237 238
286 302 348 8 356 330 261 242 170 85 101 148 171 244 297 329 356 70 118 62 19 5 359 360 351 354 25 38 29 25 17 12 17 16 13 12 12 8 355 348 354 353 348 349 347 345 344 341 342 345 346 348 347 341 339 341 337 294 226 210 208 209 210 212 213 213 214 215 217 220 221 222 222 222 222 224 225 226 228 229 230 232 234 235 236 237 238
260 320 18 21 308 251 260 298 331 38 70 115 140 173 257 309 350 39 76 35 6 360 351 349 338 328 342 60 47 32 22 12 6 3 2 4 8 3 347 342 351 350 345 343 341 343 341 337 339 343 344 346 346 343 342 344 344 338 305 237 218 212 210 211 212 212 213 214 216 219 220 220 221 221 222 224 225 226 226 227 228 230 232 234 235 236 237
297 19 72 176 262 272 289 303 309 356 44 65 83 330 260 259 342 35 76 352 343 344 329 333 328 308 292 167 69 38 26 14 3 357 353 351 354 350 341 342 344 343 343 340 337 337 333 332 336 340 341 344 342 336 338 342 343 346 344 320 260 230 221 216 213 212 213 214 216 218 218 218 219 220 222 223 224 225 225 226 228 229 230 232 234 235 236
132 139 212 255 322 318 308 308 333 29 29 19 48 288 259 232 222 260 214 292 319 323 322 330 326 309 286 205 145 35 25 13 358 348 343 341 338 334 334 337 337 336 339 339 335 332 328 328 332 336 338 341 337 329 330 336 343 349 350 345 335 296 257 237 226 219 215 214 216 217 216 217 218 220 222 223 224 224 223 224 226 227 228 230 232 233 235
121 141 264 305 327 298 279 296 339 1 352 323 314 291 268 236 251 286 272 298 315 323 330 332 331 330 311 201 211 7 12 3 349 341 335 332 333 332 331 332 331 331 336 338 333 328 326 325 327 333 338 339 332 321 318 328 342 350 349 345 343 336 321 291 260 241 229 222 219 217 217 217 219 221 222 223 224 223 222 224 225 227 228 229 231 232 233
103 143 226 246 232 242 251 279 314 327 331 331 321 288 274 274 301 316 327 317 324 340 343 346 357 7 355 266 280 345 350 344 341 334 325 325 329 331 332 332 327 323 326 331 329 327 326 324 327 333 336 333 324 313 311 324 338 344 343 340 334 326 321 311 293 272 251 238 229 222 220 220 221 221 222 223 223 223 223 224 225 227 228 229 230 231 232
202 200 232 241 230 241 253 278 302 304 317 359 353 280 283 342 322 318 322 313 320 348 4 9 25 22 302 281 295 320 325 324 327 322 317 319 322 325 331 332 324 318 320 325 326 325 323 322 326 332 332 327 320 313 313 320 330 334 333 330 325 319 313 307 298 287 270 254 242 233 228 226 225 224 223 223 222 222 223 224 225 226 227 227 229 231 231
220 223 240 260 255 233 229 263 290 300 321 47 198 241 241 311 303 304 305 299 308 336 357 353 274 244 259 275 291 303 309 311 313 313 313 315 317 319 324 327 324 318 316 320 321 317 316 319 324 330 331 326 320 317 315 316 322 327 327 323 320 317 314 309 300 290 280 267 253 243 237 233 230 227 225 224 222 221 222 222 223 224 226 226 228 231 231
227 228 238 273 277 232 199 262 284 284 247 193 221 249 233 228 270 292 297 290 304 319 303 265 243 254 266 277 285 294 301 301 302 305 309 313 317 319 319 321 323 320 316 316 317 315 314 317 321 327 329 323 316 315 313 313 319 323 323 321 320 317 313 309 301 292 283 273 262 252 243 236 231 229 227 224 223 222 221 221 221 223 224 225 227 230 231
189 212 233 262 266 206 166 341 323 204 189 215 257 301 297 246 271 305 304 294 306 313 301 280 263 266 273 280 286 288 289 289 293 300 307 308 310 314 316 316 318 319 316 314 312 310 311 313 318 324 325 318 312 311 309 313 321 322 320 320 319 316 314 310 302 294 286 276 267 258 250 240 233 230 227 223 222 221 220 219 220 221 223 224 225 227 229
150 171 221 232 212 190 178 138 177 221 243 252 233 286 299 290 291 301 300 295 295 295 297 295 287 274 266 272 283 288 287 286 291 297 303 305 306 308 310 311 313 315 313 311 309 307 306 308 314 321 324 320 314 307 307 315 322 321 317 317 316 313 312 310 304 296 287 277 270 264 258 247 236 231 227 222 220 220 218 218 218 219 221 222 222 225 227
181 194 221 226 212 205 199 184 201 240 269 265 209 237 285 276 269 281 290 291 287 285 290 294 293 285 268 267 278 288 290 290 291 294 297 300 303 303 305 307 311 313 311 309 309 306 304 306 312 318 323 322 314 307 308 316 321 319 316 313 309 307 307 305 302 296 286 277 271 266 261 252 239 231 225 220 217 216 216 216 217 219 220 219 220 222 224
262 255 246 242 244 239 222 212 219 232 243 233 215 241 271 260 263 275 275 273 280 284 286 290 293 291 284 277 277 282 288 289 289 291 293 296 299 300 302 304 307 309 309 308 307 306 305 306 310 316 322 322 315 310 310 312 316 318 315 307 301 301 303 301 299 293 285 281 278 270 262 253 241 232 225 219 215 214 213 214 216 219 219 218 219 221 223
269 277 258 231 223 217 208 225 254 254 237 227 222 234 253 259 264 269 272 273 277 279 281 285 290 291 290 288 283 280 283 286 288 289 290 293 296 296 297 301 303 304 304 303 304 304 304 305 308 314 318 318 316 314 311 310 313 316 311 301 297 298 301 302 297 291 286 286 284 277 266 254 241 231 223 218 215 212 211 212 216 219 220 219 218 219 223
203 254 259 251 250 248 235 236 253 253 243 243 246 243 249 265 271 270 272 273 272 275 280 282 286 289 289 287 283 281 280 280 283 286 287 289 292 294 295 298 299 298 296 297 299 300 300 302 305 309 312 314 315 315 312 309 312 314 308 297 293 295 300 302 297 290 288 288 287 281 271 257 240 227 219 215 213 213 213 213 214 216 218 218 218 219 222
257 279 272 266 280 283 268 247 238 233 230 242 255 261 264 272 276 276 276 275 273 277 281 281 282 284 285 284 280 279 278 277 278 281 284 286 289 291 293 295 294 292 291 291 293 294 295 298 301 303 306 310 312 313 312 309 310 313 308 298 293 294 300 302 297 290 287 288 288 284 275 260 243 229 220 215 214 215 217 218 218 219 218 218 219 221 222
254 262 245 212 236 270 263 243 234 233 233 239 249 261 271 274 275 279 284 285 284 280 278 278 277 278 281 283 280 275 271 273 276 277 279 283 286 288 290 291 289 288 287 287 288 289 291 294 296 299 303 307 308 309 310 309 309 310 306 298 293 292 294 296 292 287 285 287 288 286 278 263 246 233 225 221 219 218 220 222 223 223 223 223 224 224 223
230 237 222 191 193 240 248 238 235 239 240 235 239 252 261 265 270 276 283 289 290 287 282 279 274 272 277 281 281 277 273 274 276 276 276 277 280 283 285 285 284 284 284 285 284 283 286 289 291 295 301 304 305 307 309 309 308 305 300 293 288 286 286 285 283 281 282 284 286 286 280 264 244 231 224 221 220 221 222 224 224 225 225 228 229 228 226
234 236 215 189 193 228 240 232 231 238 236 227 236 252 254 255 268 274 277 281 284 285 287 282 276 273 276 279 279 278 276 276 275 275 275 274 273 276 278 278 277 279 281 283 282 281 282 284 286 291 297 301 302 305 309 309 305 301 296 287 282 280 279 278 278 279 281 282 282 283 281 267 244 228 221 218 218 221 223 224 225 226 226 228 229 229 229
221 225 200 185 203 227 238 236 237 243 240 232 234 250 255 263 277 280 279 280 281 282 286 287 283 279 276 276 276 275 274 275 274 274 274 273 271 272 274 275 275 276 278 280 282 282 282 281 283 288 293 296 298 303 308 307 303 298 292 286 283 282 278 273 275 277 279 280 280 280 280 267 243 226 219 216 216 219 222 224 225 226 227 227 228 229 230
222 221 178 176 235 242 240 262 272 254 242 233 228 247 265 278 289 290 287 284 282 281 281 280 281 281 277 274 274 274 272 273 273 272 272 271 268 268 270 272 273 275 277 278 281 282 282 281 282 286 289 292 296 302 306 306 302 296 290 288 289 288 281 274 276 278 278 278 277 279 278 267 245 226 219 217 217 216 215 217 221 224 226 226 227 227 228
224 204 161 209 281 268 232 231 243 241 231 221 219 248 272 282 289 291 287 284 282 280 278 276 276 278 278 276 276 275 275 275 274 271 269 267 265 265 268 270 272 274 275 278 280 281 279 278 280 285 287 291 298 304 307 306 302 295 290 290 293 292 285 281 280 280 279 278 276 276 274 265 246 230 222 220 218 215 211 210 213 219 223 224 224 224 225
216 199 178 201 237 239 232 237 239 233 221 216 229 260 280 287 290 287 284 285 284 282 281 280 280 280 280 279 277 275 273 272 269 266 265 266 265 264 265 267 270 272 274 276 279 278 275 273 279 285 287 292 301 307 308 307 305 298 294 295 299 298 296 292 288 285 285 283 278 272 269 263 251 237 227 221 216 214 212 213 216 219 222 223 223 223 223
209 196 190 210 225 228 237 244 230 220 224 233 252 274 284 287 289 287 285 288 290 288 287 288 287 284 280 278 277 274 270 267 264 261 261 262 262 262 262 264 267 270 272 274 276 273 270 272 279 285 287 295 305 310 310 309 308 304 301 303 307 309 306 302 298 296 293 290 283 274 268 262 253 242 231 223 217 213 211 214 218 220 221 220 219 219 220
217 195 195 229 247 232 214 219 224 230 242 252 264 275 279 281 285 289 292 294 292 291 292 293 290 285 281 279 276 273 270 268 266 263 262 262 262 260 260 262 265 268 269 270 270 267 266 274 283 286 291 301 310 313 310 306 306 308 309 308 310 316 316 309 304 300 297 293 287 278 269 260 251 244 233 224 218 213 213 216 219 220 218 215 214 215 218
203 215 223 256 262 215 212 232 245 247 250 257 264 271 276 282 287 292 298 300 299 298 298 296 290 284 281 278 274 270 268 267 266 264 262 262 261 260 258 256 254 257 262 264 263 261 266 279 286 289 297 307 313 313 309 305 305 312 315 314 317 325 327 323 316 308 303 298 290 280 268 256 248 243 237 227 218 213 214 218 219 219 215 212 214 217 218
168 253 308 315 290 244 242 249 251 254 259 263 266 269 272 278 288 296 303 305 304 301 299 294 288 284 283 280 275 271 268 264 262 261 259 257 258 259 256 250 247 252 255 254 250 253 271 285 291 297 307 314 315 315 314 312 312 315 319 325 335 341 339 339 337 326 315 308 297 284 272 257 246 241 238 232 225 218 215 216 217 218 217 215 217 220 220
161 230 285 280 260 263 271 261 241 244 257 260 258 263 270 277 286 294 300 301 302 301 298 293 290 289 287 281 274 266 261 257 256 256 254 253 253 252 249 248 249 247 239 225 223 250 279 293 300 312 320 320 319 322 325 320 318 324 331 344 357 358 353 355 357 349 337 326 313 299 286 270 256 244 238 235 232 226 220 217 217 219 220 220 223 225 224
178 198 219 219 217 232 250 252 243 243 255 264 266 268 277 285 290 297 301 303 307 308 302 297 295 294 290 283 274 262 250 245 249 249 245 243 245 247 246 244 238 224 201 182 215 276 303 312 317 327 328 321 320 332 337 329 326 334 343 357 10 11 6 7 9 4 355 346 333 317 300 288 275 259 246 240 236 232 228 224 222 222 223 224 227 229 226
196 210 224 224 226 231 230 231 240 244 248 263 272 273 281 288 294 302 307 310 314 312 305 302 303 305 303 301 294 276 252 236 235 239 241 241 241 240 231 212 189 170 152 144 284 308 327 331 331 332 326 318 324 342 346 337 338 348 354 1 14 18 17 16 17 13 4 357 352 343 327 311 297 284 269 253 241 235 233 233 231 229 228 227 227 225 224
193 201 220 226 236 246 243 239 245 247 245 255 268 274 286 295 300 306 310 313 315 312 308 310 316 318 320 328 330 323 303 258 235 232 234 232 222 201 172 150 136 122 105 60 340 335 340 340 338 335 328 324 332 349 354 347 347 356 7 18 27 30 27 24 23 20 14 9 6 2 354 342 325 310 297 279 257 241 233 233 234 233 230 226 221 217 213
199 200 207 220 236 249 254 255 259 257 252 257 269 278 289 300 306 309 311 314 317 315 314 318 323 324 332 343 344 341 350 1 339 216 190 158 137 124 114 107 102 96 86 41 358 352 352 347 342 343 347 343 341 352 1 356 352 4 21 30 39 41 37 31 27 22 18 16 17 17 15 8 358 347 335 317 293 263 241 233 232 232 226 217 209 199 189
208 210 213 224 237 245 251 274 279 265 253 259 279 291 297 303 309 312 313 315 319 321 323 329 334 336 344 352 352 352 4 16 23 38 62 79 86 86 83 80 81 81 71 36 13 7 1 353 349 358 8 358 349 358 7 1 4 27 36 37 44 50 46 39 33 27 22 20 22 27 31 30 23 17 12 3 348 321 267 234 222 207 173 151 143 139 138
180 185 191 209 231 243 260 319 292 268 253 257 279 297 306 312 316 316 314 316 324 330 333 338 346 352 354 355 355 357 4 12 19 26 37 54 66 68 66 64 63 62 55 41 33 24 9 3 7 20 20 6 0 10 13 6 19 43 48 44 48 52 50 46 43 37 32 30 30 32 36 40 39 34 30 28 27 27 40 104 125 119 113 110 107 105 106
170 178 184 206 238 258 293 337 294 275 263 261 275 295 311 320 322 320 318 322 332 340 341 342 349 360 0 355 353 355 1 11 20 25 29 40 53 58 56 50 47 47 46 41 35 28 21 19 22 25 23 18 14 14 15 18 34 49 52 51 51 52 52 50 48 45 41 39 40 39 39 42 45 45 44 42 41 43 56 83 100 106 107 107 107 106 106
187 185 185 210 243 261 271 266 282 288 276 268 279 298 315 324 326 325 325 331 339 345 347 348 354 1 1 359 359 1 3 9 19 27 31 32 33 39 44 37 34 36 39 40 37 34 33 33 31 27 25 28 23 16 20 37 49 52 53 55 57 59 57 54 52 51 51 51 50 49 47 47 48 48 50 51 47 41 45 65 84 93 97 99 100 100 101
186 183 187 212 239 264 285 280 290 304 288 271 281 306 324 333 335 333 334 340 348 354 356 359 4 8 6 3 4 6 7 8 12 23 34 36 31 27 25 25 27 31 37 42 42 39 37 37 37 33 32 36 36 31 39 55 61 59 57 58 60 61 61 59 58 57 56 57 58 57 56 55 54 50 50 54 54 47 40 47 65 80 89 94 96 97 98
181 181 189 214 236 262 291 302 307 304 285 274 283 309 325 335 343 344 344 348 356 4 7 9 13 13 10 9 8 8 7 7 6 10 26 42 43 39 34 30 28 29 34 43 46 44 40 37 37 37 40 47 54 58 62 65 65 63 62 63 63 63 63 63 62 60 58 58 58 58 58 60 60 58 55 56 60 58 50 43 50 66 79 85 89 92 94
178 183 191 212 236 261 297 316 319 307 286 282 302 326 331 340 352 357 357 359 7 16 19 20 22 20 18 18 19 15 10 10 10 8 10 27 40 39 38 37 33 31 35 43 49 48 43 39 39 41 45 52 62 70 71 67 64 64 65 66 66 67 68 67 64 63 62 62 62 63 62 62 63 65 64 62 65 67 63 54 49 57 71 80 86 88 90
174 183 192 207 225 259 320 330 327 312 281 305 351 360 352 358 9 12 11 13 22 29 29 28 28 27 25 25 27 25 22 22 21 17 15 17 20 23 30 37 40 39 40 45 49 50 48 45 45 47 48 52 60 67 68 66 65 66 67 67 68 69 70 70 68 68 67 67 67 68 68 67 66 69 70 69 69 72 74 70 63 59 62 71 80 85 88
172 177 187 206 218 238 14 5 30 139 164 325 24 29 21 24 30 28 25 30 38 41 37 35 36 35 31 28 28 28 27 29 30 28 27 27 26 24 28 36 41 41 44 48 50 50 49 49 50 52 51 52 56 62 64 65 67 68 68 69 71 70 70 70 69 69 70 71 70 70 71 70 69 70 72 73 73 74 77 79 78 73 69 70 74 79 83
170 173 185 205 202 113 98 122 138 146 172 218 50 45 32 37 47 46 44 48 53 51 45 42 42 41 37 34 32 27 23 24 28 30 30 32 34 35 35 37 39 41 46 49 49 49 51 52 52 53 54 53 54 58 61 64 66 68 69 70 71 70 70 71 71 71 72 74 74 74 74 74 73 72 73 74 75 75 76 79 81 81 80 78 77 78 80
169 176 185 193 167 120 125 144 147 144 172 107 80 71 46 49 58 59 58 60 61 57 51 49 47 43 41 41 40 37 33 30 29 30 30 32 35 36 36 38 39 41 44 47 48 51 54 56 55 57 60 59 56 56 58 62 65 67 69 69 70 70 71 72 73 73 73 74 74 74 74 74 74 74 74 75 76 77 78 78 79 81 82 82 82 83 83
171 177 183 186 160 134 137 146 139 116 79 77 93 102 103 84 71 64 64 68 67 58 53 52 50 45 43 44 45 43 42 43 43 41 38 38 39 38 37 38 39 40 44 48 50 52 55 57 58 62 64 63 59 57 59 62 64 66 67 69 70 71 72 73 74 75 75 75 75 75 75 75 75 76 76 77 78 79 79 80 81 83 85 86 87 87 87
169 175 180 178 161 147 145 148 135 106 84 82 92 100 100 90 82 76 73 73 71 63 57 54 50 46 45 46 47 47 45 46 48 48 47 45 44 42 40 39 40 42 46 50 53 55 58 60 61 63 65 63 60 59 60 62 65 68 70 71 72 72 73 74 75 75 76 76 76 77 77 77 77 78 78 79 80 81 81 83 85 87 88 90 91 91 93
168 174 175 167 155 147 140 130 119 109 99 91 91 92 92 93 93 91 89 82 74 67 59 52 50 51 51 50 49 49 48 47 48 49 49 49 48 46 45 44 44 45 48 52 54 56 57 58 59 63 65 65 63 62 62 64 66 69 70 71 71 72 73 74 75 75 75 76 76 76 77 78 79 79 79 80 81 82 82 83 85 87 88 90 91 94 96
174 172 161 144 136 135 131 122 118 120 124 116 101 96 101 104 98 93 93 90 79 69 61 53 51 52 53 52 51 50 49 48 49 49 49 50 49 49 48 49 49 48 50 52 55 57 57 56 57 61 64 65 65 64 64 64 66 67 68 69 70 71 71 73 74 75 75 76 76 76 76 77 78 78 78 79 80 81 82 82 83 85 87 89 91 93 93